Location: Dannhausen
(51.8650°N, 10.1026°E)
Time: 13:23:15
(UTC+00:00)

Terra - Pass Details

Date: 09 April 2020
Orbit: 701 x 703 km, 98.2° (Epoch: 28 May)

Event Time Altitude Azimuth Distance (km) Brightness Sun altitude
Exits shadow 20:29:25 38° 103° (ESE) 1,068 2.3 -19.8°
Maximum altitude 20:30:30 45° 67° (ENE) 961 2.3 -19.9°
Drops below altitude 10° 20:35:03 10° 356° (N) 2,186 5.0 -20.4°
Sets 20:37:23 0° 350° (N) 3,109 6.1 -20.7°
